Preview of NWS' New Version of Forecast
This preview is not operational and should not be used for support decisions.

Regional Weather Roundup (RWR)

Issued by National Weather Service (NWS)

                            
000
ASCA42 TJSJ 202210
RWRPR 
PUERTO RICO/U.S. VIRGIN ISLANDS HOURLY WEATHER ROUNDUP
NATIONAL WEATHER SERVICE SAN JUAN PR
600 PM AST WED FEB 20 2019

PRZ001>002-007>008-010-202300-
PUERTO RICO
  
CITY           SKY/WX    TMP DP  RH WIND       PRES   REMARKS
SAN JUAN LMM   PTCLDY    75  72  88 E6        30.07S                  
AGUADILLA      MOCLDY    73 N/A N/A E12       30.08R                  
CEIBA          MOCLDY    72  70  94 NE7       30.08S                  
$$

VIZ001>002-202300-
U.S. VIRGIN ISLANDS
  
CITY           SKY/WX    TMP DP  RH WIND       PRES   REMARKS
CHARLOTTE AMA  PTCLDY    81  68  65 E16       30.06R                  
CHRISTIANSTED  PTCLDY    81  64  57 E14       30.05S                  
$$

HOURLY WEATHER ROUNDUP FOR THE NEWS MEDIA
  
CITY           SKY/WX    TMP DP  RH WIND       PRES   REMARKS
ORLANDO        PTSUNNY   84  66  54 S10       30.04S                  
NEW YORK       LGT SNOW  29  28  96 E9        30.40F VSB 1   WCI  20  
NEWARK         LGT SNOW  29  27  92 NE6       30.39F VSB 1   WCI  23  
CHICAGO        CLOUDY    38  34  85 SW14G26   29.68R WCI  30          
HARTFORD       CLOUDY    28  10  46 SW12      30.47F WCI  18          
BOSTON         CLOUDY    30   8  39 SW8       30.46F WCI  22          
DALLAS         PTSUNNY   57  37  47 S7        29.92S                  
PHILADELPHIA   FRZ RAIN  31  29  92 NE8       30.35  FOG     WCI  23  
LOS ANGELES    PTSUNNY   57  39  51 W17       29.86F                  
WASHINGTON DC  LGT RAIN  32  30  92 CALM      30.29F VSB 1